Wind_Gust
23 23 22 21 21 20 20 19 18 18 18 18 18 18 18 18 18 18 17 17 16 16 16 16 15 15 16 15 15 14 14 15 13 12 9 13 9 8 8 8 9 8 8 12 13 15 15 15 16 15 17 20 16 19 19 19 17 20 27 24 24 21 21 18 18 19 14 20 17 14 11 11 14 13 13 16 21 21 20 24 22 25 27 26 28 26 25 24
24 23 23 23 22 21 21 20 20 19 18 18 18 18 18 18 18 18 18 17 16 16 16 16 15 14 14 13 14 12 15 13 12 12 16 9 10 9 8 8 7 7 10 12 13 13 14 13 14 16 18 17 14 18 19 22 19 24 22 26 22 20 14 17 16 15 17 17 16 15 9 10 17 14 13 13 16 17 24 25 21 25 23 22 23 23 23 21
25 24 24 23 23 22 21 21 20 19 19 19 18 18 18 19 18 18 18 17 16 16 16 16 14 13 12 10 9 10 13 14 13 17 12 9 11 9 9 8 6 6 13 8 7 9 10 10 14 16 15 15 21 18 21 22 23 21 19 22 21 16 13 14 14 17 15 14 15 14 12 12 17 16 16 15 23 22 24 20 19 20 20 20 20 19 20 19
25 25 24 24 23 22 22 21 20 20 19 19 18 18 18 19 19 18 18 18 17 16 16 15 13 12 11 9 8 15 15 16 17 12 14 8 10 10 9 8 7 11 10 10 7 9 9 11 13 14 14 16 16 14 24 22 26 18 20 20 18 18 16 18 16 15 12 10 10 9 12 13 20 20 22 16 22 26 23 20 16 20 23 22 20 18 17 18
25 25 24 24 24 23 22 21 21 20 20 19 18 18 18 19 19 19 18 17 17 16 15 13 12 11 10 8 9 14 14 20 17 10 13 9 10 11 9 8 8 10 9 11 11 9 12 13 15 12 15 15 16 17 19 21 16 19 20 13 14 17 17 20 17 12 10 10 8 9 10 15 13 26 26 28 26 22 20 18 19 19 22 21 20 19 18 20
25 25 25 24 24 23 22 22 22 21 20 19 18 18 18 18 18 18 18 17 16 15 14 12 11 10 8 5 16 14 17 15 13 13 6 8 10 10 9 8 8 11 10 9 10 10 14 14 17 17 16 14 17 20 16 18 16 21 12 11 12 19 17 19 15 13 10 11 11 11 13 14 19 20 24 26 25 17 14 14 17 19 19 19 19 20 20 22
25 26 26 25 24 24 23 23 22 21 21 20 19 18 18 17 18 18 17 16 15 14 13 12 10 10 9 8 15 14 22 23 8 13 10 10 10 10 9 9 9 10 10 11 9 13 12 13 17 13 13 11 17 15 16 16 16 19 21 14 14 15 14 12 13 13 13 16 17 15 15 22 15 23 22 27 19 16 14 16 19 20 22 20 23 21 21 21
26 26 26 26 25 24 24 23 22 22 21 20 19 18 17 17 18 18 17 15 14 13 12 11 10 10 10 14 15 15 18 21 12 10 11 13 13 13 12 11 11 10 10 11 9 9 9 12 13 12 15 14 17 15 15 17 17 14 18 15 14 14 11 12 12 16 21 20 18 21 25 22 24 23 23 25 20 17 15 17 20 21 21 21 21 21 20 20
27 27 26 26 25 25 24 24 23 21 20 20 19 19 18 17 17 17 17 15 13 11 11 10 9 9 6 14 14 16 20 13 12 12 17 17 15 15 15 12 11 11 8 8 9 9 12 13 9 13 12 12 14 12 16 18 20 17 14 15 12 11 11 12 14 16 19 16 17 28 22 20 17 19 30 22 21 16 15 20 22 23 24 23 23 22 22 20
27 26 26 26 26 25 25 24 23 21 20 20 19 19 19 18 17 17 16 14 12 10 10 9 10 7 12 15 13 16 14 10 8 13 16 15 14 14 15 11 9 10 10 10 7 9 14 13 13 9 11 12 12 11 13 19 16 19 11 9 13 12 12 13 14 17 15 15 15 28 23 22 23 13 21 21 21 18 23 24 24 27 27 25 23 24 22 23
27 28 27 26 26 26 26 25 23 21 20 20 18 19 19 18 17 16 15 14 11 10 9 8 9 12 14 14 13 19 9 9 10 13 14 14 15 15 11 9 9 11 10 8 10 12 11 10 8 9 14 14 13 14 12 10 12 13 17 18 18 18 23 14 15 17 19 20 18 27 25 25 25 26 22 19 19 17 24 26 26 26 26 26 23 23 21 22
28 28 28 27 27 27 27 25 23 21 20 19 18 18 18 17 16 15 14 13 11 10 7 6 8 15 15 13 20 18 9 9 9 12 14 15 15 11 9 8 10 11 11 10 11 10 11 11 10 11 14 14 11 13 12 8 8 14 18 19 17 18 21 19 13 12 9 19 8 16 26 26 27 18 17 17 15 16 24 26 25 25 25 24 24 24 24 24
28 28 29 28 28 28 28 26 24 22 20 18 17 15 16 16 15 15 14 11 7 6 6 4 9 13 14 12 17 12 8 10 9 10 11 14 14 11 9 8 10 11 11 11 10 10 8 9 11 10 11 11 12 13 12 10 13 14 12 16 20 20 17 20 11 12 13 13 12 13 18 18 19 17 17 18 15 16 25 25 23 24 25 25 24 25 25 24
29 29 30 29 28 28 28 26 24 22 20 17 16 14 14 15 14 14 12 9 9 8 6 4 15 14 13 21 13 9 7 8 10 12 9 10 13 10 10 8 9 10 8 11 10 10 7 8 8 9 9 11 13 11 13 15 12 16 10 13 20 21 17 13 13 14 21 13 10 14 23 16 16 16 18 17 14 16 25 22 22 23 24 24 24 26 27 25
29 30 30 29 29 29 27 27 24 21 19 19 17 14 13 14 11 10 9 7 7 7 6 7 15 14 11 19 8 11 8 9 12 14 10 10 10 11 10 9 9 8 8 9 8 7 7 9 12 13 12 7 8 9 14 13 11 15 25 21 18 20 19 12 16 15 21 14 12 32 21 18 16 16 17 16 14 17 26 23 23 23 23 23 24 25 26 26
29 30 30 29 27 27 27 25 24 22 20 20 18 13 8 7 6 6 6 6 5 6 13 13 11 15 10 18 16 7 11 11 14 14 10 10 10 12 12 8 8 10 10 10 8 9 9 13 14 12 14 14 15 13 13 15 13 11 15 14 17 10 16 14 19 13 13 18 20 20 23 21 18 16 16 16 13 17 24 23 23 23 23 23 23 22 23 24
30 29 29 28 28 27 26 25 24 23 20 21 14 6 4 5 6 7 6 8 10 11 12 12 12 12 14 16 15 12 14 13 10 10 10 10 9 10 11 10 11 11 10 11 11 12 11 13 10 14 12 14 15 14 17 14 15 12 10 14 10 19 19 20 14 21 13 24 18 19 29 20 20 18 17 16 15 19 24 23 21 22 22 22 23 24 23 23
30 30 29 29 27 27 26 25 24 21 21 20 10 4 9 8 10 11 9 10 9 10 12 12 11 14 27 13 13 15 15 12 13 15 9 10 8 7 11 10 9 10 12 14 15 16 13 16 20 17 20 18 21 23 21 22 23 21 21 18 21 17 19 16 22 14 26 21 28 22 27 23 20 19 17 16 15 19 21 21 21 21 21 21 21 23 22 23
30 30 30 29 27 27 26 25 24 21 20 15 8 9 10 9 13 14 12 13 14 13 14 16 15 14 20 16 12 11 11 11 13 13 9 10 8 9 9 8 10 14 15 17 17 13 17 17 19 18 23 24 25 21 24 16 22 25 26 25 22 22 17 16 16 12 27 22 22 20 26 25 22 20 19 17 16 19 20 19 20 20 19 19 20 20 20 21
30 31 30 29 28 26 26 25 24 22 19 11 13 12 13 14 15 13 13 14 18 17 15 13 10 8 12 12 16 18 11 11 11 10 9 8 12 10 10 11 12 14 12 15 16 13 13 19 17 15 16 14 13 12 17 16 22 21 21 21 23 26 18 17 16 15 20 31 21 22 24 23 22 20 19 18 18 18 18 18 18 17 18 18 18 19 20 19
30 31 31 29 29 26 24 25 23 23 16 13 14 14 11 13 12 16 13 15 12 12 12 12 12 12 14 13 15 18 9 13 10 14 14 10 10 13 12 13 15 16 15 11 12 15 16 19 17 16 14 13 15 15 20 20 21 25 22 23 23 21 25 14 14 12 13 24 20 19 23 22 22 20 19 18 17 18 17 17 17 17 16 16 16 17 18 17
30 30 30 29 29 27 24 23 23 20 19 14 16 16 14 14 12 12 14 15 13 11 8 9 8 8 9 10 10 12 14 11 13 16 15 15 13 18 13 17 11 17 14 16 17 17 18 18 19 15 13 13 12 12 14 23 22 20 25 22 25 21 21 15 14 14 14 30 22 21 22 22 19 18 16 16 15 15 13 14 14 14 15 15 16 17 16 16
31 31 29 29 28 25 25 22 20 17 15 17 17 14 14 11 9 9 12 13 13 10 9 13 11 13 11 9 11 12 10 15 14 17 23 18 8 16 11 15 14 17 16 14 16 15 17 19 16 13 13 16 16 14 17 18 18 23 24 23 22 24 23 21 13 12 13 19 24 21 20 22 18 16 15 12 14 14 13 12 12 12 13 14 15 14 15 16
29 29 30 29 29 25 24 23 19 12 13 15 18 17 11 9 10 13 12 10 11 12 13 11 11 12 15 13 15 14 11 13 14 15 17 17 13 11 13 14 16 15 16 11 14 16 17 15 11 11 13 14 20 18 19 20 18 12 11 20 24 22 12 17 20 19 21 22 19 22 19 20 20 21 19 16 13 14 13 13 12 12 13 13 13 14 15 15
28 29 30 30 29 28 28 20 9 11 9 9 16 11 10 8 10 10 14 12 14 12 8 11 9 10 14 9 11 13 12 11 15 13 14 16 12 14 13 10 15 17 14 10 15 17 15 12 7 11 13 14 17 17 12 11 17 15 11 12 19 17 23 23 24 22 20 19 19 21 20 21 20 19 21 20 19 16 14 13 14 13 13 13 14 14 14 14
26 28 30 28 29 30 25 9 10 9 10 13 12 12 11 9 10 12 16 14 11 16 15 10 14 11 14 11 14 9 13 12 12 15 11 15 12 14 13 13 19 17 12 11 17 17 14 10 11 10 14 14 14 14 10 12 14 14 15 10 18 21 25 25 23 19 19 21 23 15 19 13 22 23 21 19 20 19 17 15 16 16 15 14 14 15 14 13
26 27 28 26 25 28 13 12 9 10 10 11 10 12 11 11 9 11 15 14 10 15 13 16 16 19 18 12 12 9 18 18 12 10 10 15 11 10 15 15 13 13 9 9 18 15 8 13 12 11 13 12 12 14 12 13 14 14 14 15 19 25 26 25 24 17 15 15 19 18 16 19 18 25 23 22 21 20 20 20 17 17 16 15 14 14 13 13
27 26 26 25 22 15 12 10 9 8 13 10 10 11 11 10 11 11 18 12 13 9 10 13 13 13 15 11 11 11 15 11 14 13 10 13 13 12 15 13 13 13 10 14 10 17 12 12 10 11 10 13 12 15 10 13 15 20 15 18 23 24 23 22 18 14 14 16 20 23 14 20 21 16 22 21 23 23 23 22 21 19 18 17 16 16 14 12
26 26 25 22 23 9 14 10 10 10 10 10 12 11 9 10 14 18 11 13 14 14 15 11 14 11 17 12 12 9 8 12 14 13 13 9 16 15 11 13 11 12 10 14 15 15 11 12 12 13 10 13 12 12 11 12 14 13 16 15 15 15 15 13 15 14 13 18 17 22 21 25 19 18 20 21 23 26 27 24 22 21 20 19 18 15 14 14
26 24 24 20 15 10 10 9 9 10 9 10 11 9 9 12 14 15 11 10 15 11 10 13 16 15 16 11 11 13 11 12 9 13 14 11 15 14 14 9 10 9 14 15 17 13 14 9 9 13 13 13 12 13 10 10 16 22 19 21 18 15 14 12 11 12 14 17 16 13 21 21 23 19 23 24 28 28 23 23 22 21 20 19 17 17 17 16
26 24 20 15 12 10 10 10 11 9 9 10 9 10 12 18 15 11 6 12 12 12 13 9 13 11 12 11 13 13 11 10 12 12 14 13 14 12 12 16 13 14 13 15 16 15 13 13 10 13 8 10 8 17 15 15 21 21 21 20 20 15 13 14 14 12 17 19 16 14 16 18 24 16 20 23 16 19 21 21 23 23 23 21 19 18 17 14
27 26 20 14 10 10 11 12 10 8 9 10 10 12 15 13 15 14 10 11 15 12 11 13 10 14 11 8 8 13 11 12 12 12 9 12 12 13 16 14 9 15 17 15 15 13 14 12 12 13 9 11 14 15 16 15 15 17 18 20 18 14 16 17 18 16 20 18 15 12 14 18 27 27 19 25 23 17 18 21 23 23 22 21 20 17 15 14
29 26 22 11 10 10 11 10 9 8 10 10 13 12 15 11 9 10 10 10 8 13 12 9 12 13 11 12 11 10 9 9 11 11 9 9 12 14 11 13 12 16 14 15 11 17 14 11 14 12 12 10 14 16 18 18 20 17 20 20 19 16 15 13 14 14 16 16 15 14 12 22 20 18 14 20 25 19 17 17 19 21 20 20 19 17 16 14
28 23 12 10 12 12 11 9 9 10 10 9 15 14 14 8 8 8 8 8 11 8 7 9 11 8 10 12 12 11 13 12 9 11 12 10 13 11 14 11 12 11 12 13 18 16 14 17 19 15 16 12 15 16 13 11 18 19 12 16 18 17 19 17 20 18 18 14 15 14 16 16 17 15 12 12 14 20 17 18 15 17 19 17 17 17 15 14
30 17 9 9 10 12 13 11 9 8 11 13 19 15 8 9 8 9 8 9 9 7 7 7 9 10 12 10 9 9 13 10 10 10 13 13 11 8 9 12 11 12 9 15 12 15 13 12 15 11 13 11 10 10 11 11 15 12 12 14 18 21 13 19 14 18 16 14 14 21 16 12 16 16 13 11 12 17 19 19 18 18 18 17 16 17 16 16
17 11 10 8 7 10 7 8 7 9 11 14 14 10 9 11 10 10 11 9 7 8 10 10 9 15 11 12 10 9 9 13 13 14 11 10 11 9 11 9 10 13 12 14 12 17 13 17 15 12 8 9 11 8 9 13 14 17 17 21 16 16 16 14 8 12 7 15 27 10 18 20 13 21 16 14 16 19 20 20 21 21 20 18 18 17 17 16
15 15 11 8 10 10 8 8 9 10 15 16 12 7 9 9 11 9 9 9 10 9 10 13 15 13 13 14 11 12 10 11 12 15 15 11 14 10 10 12 10 8 12 18 12 12 16 14 12 14 14 11 9 9 11 9 15 16 18 14 15 13 13 14 16 12 14 20 16 15 19 17 15 15 15 17 18 21 22 22 22 21 20 20 19 18 19 17
14 9 8 8 12 9 9 8 9 13 13 15 6 5 8 8 8 8 8 9 8 8 10 12 10 10 10 11 13 12 12 16 15 14 9 12 11 10 10 11 11 10 12 10 16 11 13 15 17 12 9 13 11 11 14 13 10 17 14 17 17 14 14 17 16 17 18 18 21 17 14 20 19 16 19 19 23 24 24 23 23 23 22 21 19 19 18 16
10 11 13 11 10 8 9 8 15 12 13 15 9 7 11 10 10 8 8 8 8 8 13 8 10 9 11 13 9 8 10 18 12 12 14 16 15 12 10 8 13 9 8 11 13 11 9 15 18 14 14 11 16 19 18 17 14 12 14 17 10 17 16 10 13 17 18 20 15 18 16 17 17 16 17 21 25 25 25 24 24 24 23 21 20 20 19 18
10 13 9 9 9 7 9 10 12 13 15 9 9 8 10 9 11 10 9 9 7 10 8 7 7 9 11 9 11 10 10 13 12 9 14 13 11 13 9 10 8 13 9 7 10 9 9 10 13 20 10 13 21 24 19 17 16 19 19 19 15 16 12 18 16 20 18 20 20 21 22 15 13 13 15 19 21 23 24 25 23 23 22 21 18 18 17 16
8 13 9 8 12 9 10 18 17 11 10 10 8 10 11 8 12 9 8 7 7 8 10 7 9 11 8 9 14 9 10 11 11 15 14 12 15 12 10 8 9 10 9 10 11 9 10 12 16 11 19 20 14 15 15 14 17 15 14 16 14 14 13 13 19 15 20 20 20 18 23 17 18 10 12 15 16 17 20 21 22 21 21 19 18 16 15 15
10 13 12 8 11 9 13 13 11 8 12 10 11 9 12 6 10 11 10 10 9 7 7 9 7 9 8 11 10 8 10 12 11 13 11 16 13 14 12 7 7 7 14 8 9 11 11 14 17 14 18 14 15 12 12 12 12 13 17 16 12 14 15 17 20 12 15 20 15 17 21 16 16 11 9 12 11 13 14 18 21 20 19 18 17 16 16 15
12 9 10 8 10 9 15 10 9 8 8 11 9 11 11 10 6 9 10 9 10 8 8 9 6 10 8 9 7 10 8 12 10 12 10 11 8 11 11 7 7 8 14 11 10 12 7 13 11 19 14 11 10 9 8 8 10 14 17 14 14 19 16 19 21 18 17 11 15 15 20 18 17 11 10 10 10 9 11 14 20 19 18 16 15 15 17 17
11 11 10 10 8 9 14 12 9 8 12 10 7 10 7 7 8 11 9 9 8 9 7 7 8 8 8 8 9 11 9 13 9 12 14 10 11 13 10 6 9 11 11 11 12 16 11 13 13 13 14 15 16 15 15 10 13 20 19 15 13 12 11 11 14 13 19 21 18 18 23 13 17 10 10 10 11 12 13 15 16 18 16 16 15 15 17 16
13 10 10 15 13 10 14 10 11 8 11 13 13 12 13 10 7 10 7 9 8 7 8 8 8 8 9 8 9 8 8 11 11 9 12 9 9 12 10 9 9 10 7 11 7 13 13 8 12 15 14 12 14 17 15 15 22 20 13 9 12 15 15 14 16 17 20 15 16 20 23 16 16 10 11 12 12 13 13 13 16 18 16 16 16 16 17 17
9 9 13 12 15 11 11 8 10 11 12 12 7 9 9 11 10 7 9 10 8 8 9 8 9 9 8 10 12 12 10 9 13 8 11 13 13 13 9 8 7 8 9 11 10 10 10 9 16 16 19 18 15 16 10 13 12 17 13 14 14 14 15 16 18 20 22 12 16 19 20 21 17 13 14 14 15 16 16 16 18 20 17 14 14 16 17 17
13 10 5 8 11 13 9 9 8 11 11 11 9 12 12 11 12 12 7 10 10 7 7 7 8 10 9 10 10 11 9 9 10 14 12 13 10 10 10 7 10 12 14 12 7 12 13 16 14 15 16 19 15 12 11 11 14 15 15 15 14 14 14 17 20 23 12 16 24 19 16 19 17 14 13 15 16 17 17 17 18 19 19 19 17 16 12 17
10 9 9 11 11 6 11 9 8 8 9 12 10 9 9 11 13 10 11 7 9 11 10 10 10 10 8 8 8 9 9 11 10 11 9 13 12 15 15 13 13 12 13 11 10 14 15 15 8 11 15 15 12 12 8 11 14 15 16 17 18 17 17 22 22 22 20 23 25 14 11 17 20 18 16 16 18 20 21 22 19 17 17 17 17 18 19 18
10 9 9 9 9 8 11 12 8 9 11 10 10 9 10 11 12 11 7 13 12 12 13 5 9 11 11 10 10 9 8 9 8 9 12 11 13 12 17 13 12 15 16 11 12 8 14 18 8 10 14 14 14 14 12 15 16 17 19 19 20 21 22 23 25 23 24 26 24 25 24 26 23 22 20 18 13 15 15 14 14 16 18 18 19 19 19 18
13 14 9 9 9 8 7 7 8 11 13 9 9 11 11 12 12 11 11 12 9 11 10 11 8 9 11 11 12 13 11 11 9 10 10 12 11 14 16 16 12 16 15 15 12 11 14 8 8 9 10 17 13 10 12 14 15 21 19 20 21 22 23 23 23 23 23 26 24 25 27 30 26 19 20 14 10 12 14 16 18 19 19 19 19 19 19 18
11 11 12 15 13 10 10 10 12 14 11 14 16 11 10 12 12 10 12 13 14 11 14 11 7 10 9 11 12 15 12 11 12 12 12 12 14 10 17 13 15 14 15 15 14 12 13 11 10 13 14 13 10 12 10 13 15 21 22 22 24 23 25 24 30 24 24 25 23 22 26 30 22 14 11 11 12 14 17 18 19 19 19 19 20 20 19 17
10 7 10 15 12 6 12 10 10 10 14 11 11 9 13 9 8 9 10 11 13 11 10 9 10 11 11 11 14 15 11 13 16 14 13 13 14 11 11 11 15 16 16 19 12 19 16 17 14 12 17 14 8 9 12 16 21 24 24 23 21 19 23 22 23 20 24 22 25 24 24 20 16 10 13 13 15 17 17 18 18 18 19 21 21 20 19 17
Wind_Speed
17 16 16 15 15 15 14 14 14 13 12 12 11 11 11 11 10 10 10 10 10 10 9 9 8 8 8 8 7 7 9 7 5 5 1 6 6 5 2 2 7 6 7 5 5 7 7 7 8 7 6 8 5 7 8 9 6 7 9 8 10 8 8 6 7 7 4 9 8 6 3 3 6 4 4 7 8 7 5 9 9 9 11 10 12 12 11 12
17 17 16 16 15 15 15 14 14 13 13 12 12 11 11 11 10 10 10 10 10 10 10 9 9 8 7 7 7 4 7 6 4 5 8 5 5 4 2 4 4 5 7 5 6 6 6 6 6 8 7 6 6 5 9 7 8 9 7 9 9 8 4 5 6 5 6 7 8 7 3 3 8 6 3 3 6 3 8 9 9 13 12 12 10 10 9 11
17 17 17 16 16 15 15 15 15 14 13 13 12 12 11 11 10 10 10 11 10 10 10 9 8 7 7 6 4 5 6 6 5 8 5 6 4 2 3 3 3 3 6 1 1 2 3 3 6 8 6 4 8 6 11 7 9 9 7 8 8 4 4 6 6 8 0 6 7 6 5 5 8 6 5 6 11 8 6 5 8 11 11 7 5 4 8 7
17 17 17 17 17 16 16 15 15 14 14 13 12 11 11 11 10 10 10 11 11 10 10 9 8 7 6 7 2 7 7 8 7 4 6 5 3 3 3 1 3 7 3 1 1 2 2 3 5 6 5 6 6 5 10 8 9 6 7 7 5 7 5 7 7 7 5 1 2 2 5 5 10 10 10 3 12 7 6 6 7 9 9 10 9 5 6 6
19 19 18 17 17 16 16 16 16 15 15 13 13 12 11 11 11 11 11 11 10 10 9 9 8 7 6 5 7 6 6 7 7 3 6 6 4 4 4 3 5 4 3 0 3 2 5 6 7 4 6 4 6 8 8 10 6 4 8 4 1 6 7 10 9 5 3 3 0 2 3 6 5 14 15 16 10 6 4 7 9 8 6 5 3 5 9 11
19 18 17 19 19 19 18 17 17 16 15 14 13 12 12 12 12 11 11 10 10 10 9 8 8 7 7 3 7 6 7 3 3 5 5 6 5 4 4 4 4 4 2 2 3 3 6 6 8 6 5 5 8 8 6 8 7 7 3 3 4 7 6 10 7 6 1 3 3 4 6 6 9 10 13 15 13 7 5 7 9 11 8 6 2 4 8 9
18 18 20 20 19 18 18 18 17 16 15 14 13 12 11 12 11 11 10 10 9 9 9 8 8 8 8 7 6 6 9 8 1 6 7 5 4 4 4 5 6 4 3 4 3 4 5 6 8 5 5 3 8 4 7 7 8 8 7 4 7 7 5 5 6 5 5 6 7 6 6 6 7 12 11 14 10 7 6 6 9 12 12 9 7 7 11 12
20 20 20 20 19 18 18 17 16 16 15 13 12 12 11 11 11 11 10 9 8 8 8 8 7 8 8 6 6 4 8 9 5 4 8 6 7 7 7 5 4 4 3 3 1 1 2 5 5 4 5 4 7 4 6 9 9 4 7 7 7 6 2 4 4 7 8 9 8 9 12 12 13 11 12 14 10 6 7 7 8 9 12 11 11 12 13 12
21 21 19 19 20 19 18 17 17 16 15 13 12 11 10 10 10 10 9 8 8 8 8 7 8 8 4 6 5 6 8 5 5 5 9 10 8 8 8 4 4 4 1 1 2 2 5 5 2 4 2 4 6 4 7 8 7 7 6 7 5 4 3 4 6 8 9 6 8 12 11 8 8 11 16 11 9 7 7 9 7 9 9 11 12 12 13 12
20 19 20 21 19 19 18 17 16 15 15 14 13 11 11 11 9 9 8 7 8 8 7 7 8 6 6 6 5 3 5 3 2 6 9 8 8 8 8 5 2 3 2 3 0 2 5 5 5 1 3 3 4 2 6 10 6 10 4 2 3 4 5 3 7 8 7 6 8 13 11 11 9 4 8 10 8 10 12 13 12 11 12 13 12 14 14 14
20 21 21 19 19 18 18 18 16 15 15 14 14 12 11 11 9 7 6 7 7 7 7 6 7 9 6 6 3 7 2 3 2 4 7 8 8 7 4 2 3 4 3 2 3 5 4 3 2 1 5 4 5 6 5 2 3 5 6 5 5 8 8 6 7 9 8 8 9 14 14 12 10 13 9 8 5 8 11 11 13 9 10 12 14 13 13 12
20 21 20 20 20 19 18 18 17 15 15 14 13 12 11 10 8 5 5 5 6 6 5 4 6 5 7 5 8 7 2 2 1 3 6 8 7 4 4 2 3 4 4 2 4 4 4 5 3 3 2 4 3 6 4 2 1 7 8 8 8 8 8 6 5 4 2 8 2 7 12 12 12 8 8 7 5 8 11 14 14 12 12 13 12 12 12 12
20 21 20 19 20 19 18 18 17 16 15 14 12 11 10 8 5 5 4 5 3 4 5 3 7 4 5 3 7 5 1 2 2 3 4 5 6 4 2 2 4 4 4 4 3 3 2 3 5 3 4 3 4 3 4 1 6 7 4 6 10 9 6 7 4 3 5 5 2 5 5 6 9 8 7 5 5 8 12 11 12 12 12 12 13 12 13 13
21 20 21 21 20 19 19 18 18 17 15 14 13 9 7 5 4 3 3 4 3 6 5 3 6 5 5 8 4 3 1 1 4 6 2 3 6 3 3 1 2 3 2 3 2 3 1 0 2 3 3 5 4 4 5 6 5 6 4 5 7 8 6 5 4 2 4 4 3 6 0 5 8 7 6 5 4 8 12 11 12 12 12 12 12 13 14 14
21 21 20 21 20 19 18 18 17 16 16 14 11 8 4 3 3 4 3 5 5 5 5 5 5 5 3 7 2 4 3 2 4 6 3 3 3 4 3 1 2 1 1 2 1 0 0 2 4 5 4 1 2 3 5 4 3 5 9 8 7 8 7 5 4 3 1 6 3 7 5 5 7 7 6 4 6 9 12 11 12 12 12 12 12 13 13 13
21 21 21 21 20 19 19 18 16 16 16 11 9 6 4 2 4 5 5 2 3 4 5 5 3 6 1 5 6 3 4 1 5 6 3 4 3 5 4 2 1 3 4 3 1 1 1 3 2 4 5 6 5 3 5 5 4 2 6 6 7 2 5 6 4 2 3 5 5 8 5 8 8 7 6 4 6 9 12 12 13 13 13 11 11 10 11 12
21 21 20 20 20 20 19 18 16 15 15 10 9 2 2 1 5 6 5 6 4 5 4 3 3 3 2 4 5 2 6 4 4 2 3 3 3 4 4 2 4 5 3 4 4 4 3 5 3 4 2 4 6 5 4 2 3 1 2 3 3 9 6 7 7 2 1 5 7 5 8 8 10 9 8 5 7 9 11 11 11 10 10 11 10 11 11 11
20 21 21 20 19 20 20 19 17 14 14 10 7 3 2 3 5 6 3 6 2 2 3 3 2 4 10 1 4 7 6 4 6 5 2 2 2 1 3 3 3 3 5 6 7 7 4 5 7 5 8 7 9 9 8 9 9 8 9 8 9 9 10 6 8 4 4 5 6 8 11 12 11 10 8 7 6 9 10 10 10 10 10 10 10 11 12 11
20 20 20 19 19 19 20 19 19 16 13 12 7 3 1 5 5 5 3 3 4 4 4 3 3 2 8 7 4 3 3 5 5 6 1 3 1 2 1 1 3 7 6 7 7 5 6 5 7 6 9 10 11 9 10 8 13 14 15 12 11 10 7 4 7 4 3 8 7 9 9 12 12 10 9 8 8 9 10 10 9 9 9 9 9 9 9 10
20 20 20 20 19 19 20 19 18 16 13 8 4 4 4 4 5 3 2 6 8 8 7 5 2 1 3 5 8 7 3 5 3 3 3 2 4 3 1 1 5 5 4 3 6 4 5 6 5 2 5 4 4 3 3 3 6 8 12 10 11 9 7 8 8 7 5 6 4 9 13 12 12 10 10 9 9 9 9 9 8 8 7 7 8 9 10 10
20 20 20 19 19 19 19 19 17 18 13 5 6 4 0 4 3 5 4 7 5 5 5 5 5 5 6 5 7 8 1 5 3 6 6 2 3 6 3 5 6 5 5 4 3 5 6 6 6 7 6 6 6 4 5 6 7 10 10 10 9 10 9 6 6 3 3 3 8 10 12 11 11 10 9 8 8 8 8 8 8 8 7 7 8 8 9 8
20 20 20 20 19 19 19 18 17 17 16 6 4 5 5 6 4 4 5 5 6 4 1 3 2 1 2 2 4 5 7 3 5 7 6 7 4 8 5 6 2 6 6 7 7 5 5 5 8 6 4 5 4 4 5 7 8 8 7 8 9 7 8 7 5 2 3 6 8 11 10 9 9 9 7 6 6 6 5 5 6 6 6 6 7 8 8 8
20 20 20 20 19 19 18 16 16 13 5 5 6 6 5 3 1 2 4 3 4 2 2 5 2 6 4 3 4 5 4 6 5 8 10 9 0 6 2 4 3 7 6 6 3 4 5 7 7 5 5 7 6 5 7 7 6 5 7 8 6 10 10 8 4 2 1 3 10 10 9 8 8 7 7 4 6 6 5 5 5 4 5 6 6 6 6 7
20 20 20 20 19 19 18 17 15 8 5 7 9 7 3 1 2 4 4 2 2 5 5 4 4 5 7 5 5 6 4 5 5 7 8 7 4 4 2 3 6 5 4 1 1 4 5 6 4 4 5 5 7 6 6 4 4 2 3 5 8 11 4 7 7 5 6 5 10 10 6 7 8 9 7 6 4 6 5 5 5 4 5 6 6 7 6 7
19 20 20 21 21 19 19 16 2 4 2 2 7 4 3 1 2 3 5 3 4 3 1 4 2 3 6 2 4 5 5 4 7 5 6 8 5 5 4 2 4 4 4 2 6 6 6 4 0 4 5 6 6 5 3 3 4 4 3 1 8 8 7 10 12 10 7 6 8 11 6 7 8 9 9 8 7 7 6 6 6 5 5 5 6 7 6 6
18 19 19 20 20 20 18 4 3 2 3 5 4 4 3 2 3 3 5 3 2 5 4 2 4 2 3 1 5 2 6 3 4 5 4 7 4 6 3 3 5 6 5 3 4 4 4 3 3 3 4 4 5 4 2 3 3 5 5 2 7 7 8 12 12 8 6 5 9 6 7 2 9 11 9 9 10 9 8 7 7 7 6 5 6 6 5 5
18 18 18 18 18 19 5 4 2 3 3 4 3 4 3 3 2 4 4 3 3 4 5 5 5 6 5 5 5 2 8 7 2 3 3 7 4 3 6 5 4 4 2 1 4 4 2 6 5 3 3 3 4 4 3 5 3 3 7 6 8 7 9 10 8 6 2 6 8 8 5 7 6 10 12 12 10 10 11 10 9 7 7 7 6 6 6 5
18 17 17 17 16 11 4 3 3 1 5 3 3 4 3 2 3 2 4 3 1 0 1 1 4 3 5 3 4 3 7 2 5 5 4 5 6 5 4 4 2 5 3 4 2 6 4 4 1 3 2 2 1 6 3 4 4 7 7 8 6 6 6 7 7 4 3 5 6 9 5 7 7 3 12 11 11 12 12 12 11 10 9 9 8 7 6 4
19 17 16 14 16 7 6 2 3 3 2 3 4 3 1 3 5 5 2 4 2 2 2 2 2 3 5 3 1 2 1 3 4 5 3 3 7 6 1 5 3 2 1 6 1 6 3 5 4 4 2 2 4 3 3 5 3 6 7 5 1 1 3 4 5 3 3 6 6 9 9 8 7 4 7 10 12 13 13 13 11 11 10 10 8 7 6 6
19 16 14 14 10 4 2 2 1 3 1 2 3 2 3 4 4 6 2 4 3 3 2 3 5 5 6 3 4 1 4 5 2 2 4 3 4 5 6 2 3 3 3 2 5 5 5 3 3 4 3 4 4 4 3 2 8 11 9 8 6 5 3 2 2 2 4 6 6 5 10 8 6 7 8 9 11 12 11 10 10 11 11 10 8 8 8 7
20 16 13 10 3 2 2 2 3 2 2 3 2 3 4 5 5 2 2 3 3 3 4 1 5 4 1 3 4 5 3 2 3 1 5 4 6 1 4 5 2 3 3 3 6 7 6 5 3 4 1 3 1 7 5 6 11 11 7 6 5 4 3 4 4 3 5 6 5 6 6 9 9 5 6 8 8 9 10 10 12 13 12 11 10 8 8 6
20 17 12 6 2 2 3 4 3 1 2 3 3 4 4 3 3 4 0 3 5 4 4 4 3 5 3 1 2 1 1 5 3 1 2 2 4 1 4 5 1 5 6 5 4 5 5 2 4 5 2 4 5 5 6 6 6 7 7 7 7 3 3 5 5 6 5 5 3 1 4 6 11 10 8 3 7 7 8 8 10 12 12 11 11 9 7 6
21 17 13 5 3 3 3 3 2 2 3 3 4 4 5 2 3 1 1 1 0 5 3 2 5 5 3 5 3 3 1 1 3 3 0 2 2 5 4 5 4 5 3 5 3 6 4 4 7 4 5 2 5 5 6 6 8 7 7 7 7 4 4 5 4 4 4 4 4 2 3 8 8 6 4 5 4 7 8 8 10 12 11 11 10 8 6 5
21 15 4 3 4 4 3 3 2 3 4 3 5 5 1 2 0 3 2 0 4 2 1 2 4 2 4 3 5 2 4 4 3 3 5 2 4 3 5 4 5 3 4 4 6 6 4 7 7 7 4 3 6 5 4 2 7 7 3 5 7 5 4 6 7 6 6 2 4 5 4 4 8 4 3 0 3 5 7 8 7 8 10 9 8 8 7 6
22 10 3 2 3 4 4 3 3 3 4 5 5 4 2 2 1 1 1 2 2 0 1 1 3 4 4 2 2 1 5 3 1 3 3 4 3 1 2 3 4 4 2 5 2 4 5 2 6 3 5 1 2 2 4 3 5 2 3 4 6 7 4 6 4 6 6 3 4 8 4 1 3 5 4 2 4 7 9 9 9 9 8 8 7 8 7 7
13 2 3 2 1 3 0 1 2 3 4 5 4 2 2 3 2 1 2 2 1 2 2 4 3 6 3 4 3 2 3 5 5 5 3 3 3 0 4 2 2 5 4 4 3 6 4 5 8 5 2 0 2 1 1 4 5 5 6 8 1 5 4 0 2 3 0 4 9 2 6 7 2 8 7 6 7 9 10 11 11 11 11 9 8 8 8 7
4 3 3 2 3 3 1 1 2 3 4 5 3 1 2 2 4 3 2 2 4 3 4 5 5 4 4 4 3 5 3 4 4 5 4 3 4 3 3 5 3 1 4 7 3 3 6 2 4 6 7 4 2 1 1 3 5 3 6 2 6 4 5 3 5 2 4 7 3 3 8 7 4 1 3 7 7 10 12 11 12 12 11 11 9 9 9 8
6 2 1 1 4 2 1 1 3 3 4 5 2 3 1 1 2 2 2 3 3 2 3 4 2 3 3 3 4 4 5 6 6 5 1 4 2 1 4 3 4 3 5 3 6 3 3 4 7 5 1 6 4 4 5 4 2 6 4 4 6 3 6 6 3 7 7 7 6 6 5 8 7 2 7 8 9 11 12 12 12 13 12 11 10 10 9 8
3 3 4 4 3 1 2 2 4 4 4 5 2 2 3 3 4 2 2 1 2 2 4 1 4 2 3 5 2 2 2 6 3 4 4 6 4 4 1 1 5 3 1 4 4 2 2 5 6 6 6 4 6 7 6 6 5 2 3 6 1 5 5 3 3 6 4 8 6 7 5 4 3 4 1 4 8 10 11 12 13 13 13 11 9 9 9 9
2 4 2 3 2 1 2 3 4 4 5 2 1 1 2 3 4 4 2 3 1 3 2 1 1 2 4 2 4 2 3 6 4 1 5 4 2 4 2 3 1 5 2 0 3 2 2 2 4 7 3 3 8 8 7 6 6 7 7 6 5 5 3 5 4 7 5 6 6 7 8 5 1 4 2 3 3 7 10 12 11 11 12 11 9 8 7 8
1 4 2 2 3 1 3 5 5 3 2 3 2 3 4 2 5 3 2 2 0 1 3 2 1 3 2 3 6 1 2 3 3 5 5 4 5 4 3 0 2 3 3 4 4 1 2 3 6 2 7 7 3 5 6 6 6 5 4 6 5 5 4 5 6 4 7 5 6 6 8 5 4 1 1 3 2 3 7 10 11 11 12 10 9 8 7 6
3 4 3 2 3 3 5 4 2 1 2 3 2 2 4 2 4 4 4 4 4 1 1 2 0 3 2 3 3 1 3 4 3 5 4 6 5 4 5 2 1 1 5 0 2 4 3 4 6 5 6 4 7 5 5 5 5 5 6 6 4 5 5 5 7 3 4 7 6 6 8 4 6 3 2 1 2 3 3 7 9 10 10 10 8 8 8 7
3 2 4 2 3 3 6 2 2 2 2 4 3 4 4 3 1 3 3 3 3 1 2 3 1 3 2 3 0 3 1 3 3 4 2 3 1 4 5 2 1 3 6 2 3 4 2 3 3 7 5 3 2 2 0 2 4 6 8 5 5 8 7 8 8 7 6 1 4 4 7 3 7 4 2 0 1 1 2 5 8 9 8 7 7 8 9 8
3 3 2 3 1 3 5 3 2 2 3 4 1 4 1 1 2 4 3 2 2 3 1 1 3 2 2 2 2 3 2 4 3 4 5 3 2 6 5 0 3 3 4 2 4 6 3 3 3 4 4 4 6 5 5 3 4 7 7 6 6 4 4 4 6 5 7 9 9 6 8 3 7 3 2 2 3 4 5 6 7 8 7 6 7 7 8 8
4 2 3 1 1 3 5 3 3 1 4 6 5 5 6 3 2 4 1 3 2 1 2 2 2 1 2 1 2 2 1 4 3 3 4 3 2 5 5 1 3 3 1 5 4 3 4 1 3 5 5 4 5 6 3 4 9 7 6 3 5 8 7 5 6 6 7 7 8 6 7 3 6 3 3 4 3 4 5 5 8 8 8 7 7 7 8 8
1 2 3 3 1 2 1 0 3 3 4 5 3 3 3 4 3 1 3 3 1 2 2 1 2 3 2 3 4 5 4 2 5 1 3 4 5 4 3 3 1 1 5 3 1 3 3 2 6 6 7 7 4 6 1 5 4 6 6 7 7 6 7 8 7 7 8 4 6 9 9 10 7 5 4 4 4 5 6 7 8 10 9 7 7 7 8 8
3 3 1 2 3 2 1 2 2 4 3 4 2 4 6 4 4 5 0 3 4 2 2 2 2 4 3 4 4 4 3 3 4 5 5 6 3 3 4 1 5 5 8 4 1 2 4 6 6 8 9 9 7 5 4 4 7 7 7 8 7 7 8 9 8 8 5 6 10 7 8 9 7 6 4 5 5 6 6 7 8 9 9 9 8 8 8 8
3 2 2 3 3 1 3 3 1 2 3 5 1 1 2 5 6 4 4 1 3 4 3 4 4 4 2 3 2 3 3 4 4 4 2 6 5 7 5 7 6 7 7 3 2 4 6 5 1 4 8 8 6 6 2 4 7 8 9 10 10 10 10 12 13 13 11 9 10 7 3 8 9 9 8 7 7 8 7 8 8 8 8 9 9 10 10 9
2 2 2 2 2 2 4 4 2 2 4 4 2 3 4 5 6 4 1 5 5 5 6 2 4 4 5 3 4 3 2 3 2 3 4 4 6 5 7 6 5 8 7 4 4 1 4 7 0 4 7 7 8 7 5 7 8 9 10 11 12 13 13 14 15 14 14 16 14 14 15 16 12 12 11 10 6 6 6 6 6 8 9 9 10 10 10 9
4 4 2 1 3 1 1 1 2 4 5 3 3 4 4 5 5 5 4 5 3 4 3 5 3 2 4 5 5 5 3 4 4 4 3 5 4 5 7 7 1 8 7 7 5 4 5 1 3 3 4 8 6 4 6 7 8 11 11 11 12 13 14 14 13 14 15 15 15 15 16 16 13 10 10 7 3 5 6 8 9 9 10 10 10 10 10 9
3 3 3 5 4 3 2 3 4 5 4 5 5 4 4 5 6 4 5 6 7 4 6 5 1 3 3 5 6 7 6 5 5 6 3 4 5 2 6 3 7 6 7 6 5 4 4 3 2 5 5 6 3 5 4 6 8 12 13 13 14 14 15 13 12 12 13 14 14 14 13 13 10 7 4 4 5 6 8 9 9 9 10 10 11 11 10 9
3 2 3 5 4 2 4 3 3 3 4 3 3 3 5 3 2 2 3 4 6 4 3 4 3 4 4 5 7 6 4 5 6 6 5 5 6 4 3 4 3 7 6 8 5 7 6 6 4 3 7 5 1 2 5 8 11 11 13 12 11 11 12 12 12 12 13 13 12 11 12 9 7 2 5 6 6 7 8 8 8 10 10 11 11 11 10 9
Wind_Direction
358 356 354 353 351 348 344 342 340 338 335 336 334 331 332 331 329 328 326 325 324 324 326 325 320 322 316 316 319 321 308 276 212 215 187 56 60 105 121 101 140 156 198 210 159 180 165 160 165 168 184 189 178 204 160 202 184 203 210 223 220 233 201 173 213 189 87 150 140 151 115 239 139 147 93 117 44 77 76 73 70 78 80 96 107 115 127 132
354 354 352 351 349 346 343 341 341 338 338 335 334 333 330 329 329 327 325 324 324 322 323 326 322 317 319 314 303 324 293 261 206 89 46 44 109 136 105 126 137 188 234 201 180 190 167 165 157 186 178 191 159 183 163 178 200 198 210 220 232 210 191 170 204 149 171 140 136 119 102 9 60 323 83 187 98 54 78 75 97 94 81 57 81 89 68 74
350 350 351 349 347 345 342 340 339 338 335 334 331 330 329 327 327 327 322 322 321 322 323 323 323 321 308 303 295 274 278 240 220 45 58 82 128 139 106 117 200 206 256 315 188 232 266 134 154 194 197 170 192 161 199 155 199 212 236 212 232 155 165 204 186 164 261 113 145 160 109 58 40 23 307 114 91 22 57 103 106 98 87 89 324 115 139 130
347 347 347 346 344 342 341 340 338 336 334 331 328 327 324 325 322 319 320 319 320 323 325 322 321 319 309 290 309 288 250 249 69 29 78 120 140 121 121 142 213 232 249 342 299 245 215 190 178 222 176 203 170 184 190 149 212 157 235 222 206 174 181 189 177 161 133 360 83 100 127 94 47 34 20 336 142 94 33 55 101 110 131 152 170 176 120 99
346 345 345 343 344 342 339 340 337 334 331 329 325 323 321 317 317 318 319 318 321 322 323 320 318 314 305 286 282 245 263 237 55 22 99 139 139 150 164 174 236 247 291 70 202 189 208 185 182 208 214 155 168 172 204 159 237 142 221 313 127 165 217 160 176 140 81 45 52 151 166 87 89 41 36 36 73 70 64 66 93 107 91 78 109 110 101 89
347 344 341 343 343 343 340 338 337 334 331 327 324 321 317 316 313 315 317 317 321 323 319 319 318 313 299 233 263 240 256 72 40 59 110 155 149 160 166 187 246 260 221 213 245 172 190 185 199 182 202 181 172 190 150 177 190 197 174 225 225 173 203 147 161 99 76 122 121 118 73 96 83 71 49 56 60 72 77 107 97 106 127 120 295 31 68 78
343 342 343 344 343 342 340 339 335 333 331 326 323 321 318 314 312 311 313 316 320 319 321 318 316 310 308 283 238 253 70 90 187 95 112 159 155 159 154 198 214 225 238 240 182 211 215 186 220 180 196 206 166 193 140 162 200 276 164 168 189 176 184 140 80 83 111 96 93 86 92 95 98 71 52 61 56 70 76 78 93 110 124 131 155 116 77 72
346 346 345 343 341 340 338 334 331 333 327 322 318 316 316 310 308 308 310 314 317 317 316 315 318 309 317 262 248 123 77 68 71 122 132 140 173 168 194 208 231 249 265 23 11 124 231 200 206 162 210 219 152 195 145 174 199 227 152 171 143 199 113 63 87 107 106 98 104 100 84 76 76 76 64 51 53 64 91 100 106 104 110 118 104 92 85 80
346 345 341 341 341 338 334 331 331 330 323 318 316 313 309 307 302 304 305 314 314 315 312 312 312 311 255 278 268 102 70 51 26 147 157 172 184 177 203 205 193 263 22 29 32 57 257 90 224 270 101 198 147 165 170 186 186 236 145 163 154 166 96 87 134 121 109 116 111 96 86 83 82 75 58 44 58 71 84 99 99 107 95 89 82 80 80 77
343 341 342 343 341 338 333 330 325 322 320 318 315 311 307 299 301 300 307 310 312 308 306 311 310 300 268 259 236 98 78 27 173 173 182 189 179 189 211 277 244 284 266 70 248 12 36 64 355 61 330 65 186 132 161 233 69 184 136 150 145 109 126 130 132 118 112 111 115 100 84 69 48 237 86 45 50 77 79 73 60 61 77 69 66 60 58 67
342 343 344 341 335 333 330 325 325 321 324 319 317 312 302 296 294 298 304 303 306 308 301 299 315 290 278 265 286 84 73 232 133 187 193 202 199 216 233 202 272 283 314 140 52 28 38 17 30 120 245 74 187 129 226 19 345 195 121 135 121 110 86 113 118 126 131 104 114 101 90 74 66 59 58 54 69 104 104 101 107 120 89 84 81 76 69 63
342 343 342 338 338 336 330 326 325 325 323 321 317 306 297 288 291 296 289 296 295 293 313 304 286 285 284 279 60 62 155 347 219 181 200 208 226 277 320 282 266 300 311 342 71 42 8 6 284 258 39 192 146 137 90 49 197 139 155 151 140 139 103 66 100 98 175 127 117 116 108 64 45 55 54 53 79 104 105 99 99 101 98 91 87 86 76 71
342 342 339 338 337 332 329 327 325 327 322 322 315 306 292 287 286 282 274 270 235 272 304 299 268 273 285 103 56 76 222 346 181 200 203 221 261 259 270 262 273 284 298 302 19 36 5 329 318 299 68 275 89 348 98 144 113 149 200 153 160 155 117 58 89 82 163 112 281 243 192 65 60 62 56 43 96 108 96 96 99 101 100 98 91 88 83 80
340 340 338 338 336 332 330 327 328 326 324 326 324 313 299 272 253 252 229 252 280 274 269 270 280 268 268 76 98 82 335 223 166 183 194 223 253 159 195 194 253 256 244 278 328 349 314 274 272 48 30 352 81 172 165 104 166 172 131 206 170 176 131 74 33 59 189 126 259 242 201 95 81 74 70 62 96 107 102 100 99 99 98 96 94 92 88 82
338 339 340 338 334 332 331 329 328 329 332 333 328 331 318 243 221 224 221 228 235 244 257 251 246 269 163 84 139 107 126 229 202 37 25 282 287 164 133 153 167 202 227 252 282 7 19 217 209 185 97 37 88 180 119 128 110 133 173 180 169 205 125 107 80 28 330 152 256 238 119 105 95 97 81 69 112 114 101 100 98 97 97 97 96 94 92 90
337 338 342 339 334 333 332 331 328 333 337 332 330 335 6 203 188 197 208 354 140 207 221 252 206 287 9 94 66 166 213 58 32 354 26 300 318 348 357 338 111 158 185 161 242 209 226 252 273 53 139 157 150 85 113 139 125 164 248 151 179 254 134 155 92 70 2 162 177 275 123 133 106 106 92 60 116 108 102 101 101 101 100 98 93 93 91 87
337 338 339 338 336 333 332 331 329 333 339 330 320 191 25 115 173 177 185 186 186 211 262 334 322 267 18 58 242 183 34 8 349 321 357 52 320 341 304 282 195 174 169 157 191 208 153 214 119 207 220 183 129 138 128 202 135 231 320 178 223 220 168 202 108 60 126 243 169 179 142 106 114 118 110 99 127 118 105 101 96 94 95 95 94 89 83 75
337 337 338 337 336 334 332 330 329 334 337 325 316 337 160 165 154 160 173 221 185 226 265 257 300 270 112 188 39 17 333 349 340 332 298 44 348 253 332 319 188 230 176 162 149 202 161 178 195 174 175 176 176 178 196 182 189 183 198 198 191 222 206 194 180 90 214 204 142 108 110 121 117 118 113 102 115 109 104 102 100 100 98 96 93 88 81 74
336 338 337 336 335 334 334 331 328 333 335 313 273 282 213 217 226 261 275 192 217 193 200 71 324 345 44 24 8 342 346 346 299 282 90 351 52 282 223 235 239 204 181 214 94 225 172 155 211 180 187 181 187 195 202 187 182 186 193 198 187 190 173 120 83 98 196 161 150 152 137 130 128 122 119 112 114 109 105 105 104 101 101 98 92 86 81 80
336 339 337 336 336 334 334 331 326 325 340 307 214 214 210 202 183 152 109 50 39 22 15 20 350 61 187 36 10 343 280 259 251 54 3 49 257 199 284 267 165 229 248 106 132 144 228 171 182 138 61 54 65 267 304 130 197 177 193 191 186 159 103 103 99 83 82 117 122 138 134 130 125 122 122 125 124 115 114 113 112 114 111 106 101 94 88 80
334 337 336 335 337 333 330 330 323 320 326 288 278 267 319 7 271 107 45 66 48 24 15 48 11 3 22 349 7 349 275 115 10 59 19 324 252 253 118 213 196 133 74 98 102 141 242 114 80 60 58 74 85 108 137 140 164 180 174 171 160 165 133 102 110 103 170 235 130 136 132 125 120 126 127 130 133 123 124 122 117 113 106 102 97 93 90 93
337 336 335 335 333 333 328 327 320 320 305 267 33 75 83 51 3 11 292 131 92 42 10 55 244 133 110 340 12 332 271 257 99 38 45 318 15 275 97 242 218 101 139 142 144 167 112 87 80 73 96 114 100 116 124 134 146 166 171 160 148 126 112 102 105 128 165 180 138 147 135 124 126 126 131 137 123 103 79 94 108 124 124 116 104 100 99 96
338 335 334 332 332 331 328 319 318 312 321 51 55 72 55 11 343 291 255 303 101 36 29 41 59 48 75 132 22 294 274 38 5 41 13 326 212 27 280 201 131 127 170 198 138 126 124 102 72 98 151 141 128 133 124 134 138 148 152 170 155 143 160 148 118 154 153 221 154 157 140 129 128 131 125 121 126 113 109 112 107 93 97 91 89 89 103 101
335 333 331 332 330 330 321 321 300 283 32 38 56 46 23 344 260 201 251 303 88 105 26 38 350 15 31 353 22 326 9 60 307 33 17 341 29 326 292 38 141 195 127 283 7 73 86 74 61 134 177 178 138 152 157 143 135 98 149 134 141 169 176 153 134 124 120 109 157 159 157 151 163 163 160 148 133 139 136 142 135 121 105 102 103 94 80 83
333 334 331 331 331 328 320 317 308 37 286 251 62 28 357 318 242 226 284 165 213 121 166 165 324 68 15 229 271 271 91 114 37 25 8 352 11 253 64 330 286 114 119 81 142 123 103 59 98 196 167 185 143 163 183 155 151 137 60 52 144 159 150 134 145 156 158 143 190 186 192 200 175 185 179 156 168 172 162 171 160 139 137 138 120 103 98 85
333 333 333 330 330 327 309 286 54 321 279 49 13 5 332 260 202 251 271 254 212 90 224 151 310 89 308 100 351 346 253 99 30 34 10 5 295 333 187 165 319 128 135 171 58 57 76 116 236 185 176 180 184 152 173 249 185 185 125 205 153 162 150 155 168 194 188 198 174 232 252 195 167 194 187 172 185 177 170 192 173 167 159 155 141 131 119 113
333 333 332 331 330 329 292 50 32 257 241 89 38 336 323 236 189 196 258 185 262 55 325 52 283 76 300 16 336 255 236 90 132 68 55 23 333 72 276 106 149 78 25 7 195 116 164 133 163 221 206 194 168 175 127 291 228 132 117 179 157 168 172 173 182 223 86 51 140 203 247 272 198 201 189 183 194 188 187 191 190 181 173 161 150 140 131 126
331 333 332 330 329 335 4 309 268 29 38 16 328 318 289 182 190 227 258 282 214 239 344 10 18 3 301 354 295 321 43 61 221 87 30 5 290 217 296 70 334 121 142 244 243 91 314 136 177 202 205 225 56 34 13 295 283 98 149 173 167 179 185 193 207 217 137 196 181 203 210 254 266 168 168 180 200 205 206 200 194 187 178 165 161 156 147 125
330 329 330 327 319 315 285 296 316 46 47 7 315 300 212 163 235 270 292 269 64 287 94 155 107 216 360 230 140 56 128 12 342 56 2 192 44 322 178 71 67 128 190 276 180 159 108 3 25 348 271 100 55 37 345 321 172 117 143 185 140 153 195 200 221 209 174 238 231 199 194 249 254 144 182 186 223 219 213 209 202 190 185 171 168 160 158 151
328 327 328 325 306 206 203 233 223 52 356 341 315 272 199 219 223 226 193 259 21 135 312 338 294 343 318 237 112 167 161 85 50 65 44 7 66 98 60 322 289 202 159 155 84 86 96 76 342 34 42 68 78 56 356 352 87 131 152 144 149 162 160 199 275 233 217 226 245 196 189 248 261 225 209 197 217 225 219 204 201 191 183 172 167 171 171 165
326 326 323 315 275 22 283 187 91 141 11 330 298 218 235 221 263 279 240 58 255 59 234 105 30 302 336 262 175 125 106 105 98 257 138 205 131 125 136 171 223 215 170 141 126 143 164 156 190 73 72 113 248 99 77 118 136 156 169 164 151 154 168 202 190 234 242 239 186 166 223 217 257 237 218 209 217 232 223 206 197 190 182 175 170 180 170 155
325 322 318 287 314 305 281 44 59 36 338 325 236 220 227 231 164 247 61 125 255 45 343 19 42 3 332 6 336 75 82 124 53 343 347 10 47 331 29 330 158 208 199 185 163 180 175 136 100 126 77 266 181 150 128 149 171 206 183 185 203 161 204 201 197 216 224 273 100 217 192 232 239 265 291 209 204 206 211 209 196 192 187 174 174 174 166 151
322 322 302 240 192 226 254 357 326 332 309 249 241 224 246 279 244 113 189 268 31 338 91 293 345 331 357 255 143 86 308 1 86 108 19 137 274 90 48 7 349 317 300 173 165 198 142 148 193 133 184 155 269 228 150 193 193 208 205 197 229 208 206 235 226 234 257 180 147 161 179 257 281 246 228 274 216 199 191 207 201 190 184 174 172 171 163 161
316 322 297 145 223 272 327 307 292 313 286 219 235 213 270 278 321 65 305 352 47 141 295 347 316 243 258 276 82 307 181 107 254 123 242 144 238 148 145 106 339 247 268 157 231 202 192 191 179 191 173 109 239 290 326 301 183 211 263 238 242 263 236 231 237 235 234 268 129 148 219 254 257 83 35 101 306 190 179 186 174 174 173 172 170 171 168 174
312 297 248 173 231 242 250 264 259 262 262 227 221 247 255 281 308 326 189 82 116 221 207 153 279 233 157 190 76 95 335 126 172 212 196 240 157 303 59 83 62 320 318 233 121 258 263 341 92 47 25 289 266 29 311 283 231 170 248 266 251 247 270 268 13 321 332 306 210 173 259 248 321 129 127 178 192 192 165 162 163 164 163 162 171 179 181 184
303 134 231 166 178 69 252 186 197 210 260 230 247 248 277 8 352 148 56 343 89 282 5 206 239 227 214 172 136 229 116 295 130 244 162 261 61 255 80 38 27 5 309 278 100 219 198 223 116 116 157 92 40 290 210 307 261 149 212 222 289 24 284 263 179 63 105 251 267 233 237 248 186 203 180 165 182 182 175 175 181 177 173 172 183 185 192 194
354 299 190 127 115 43 77 187 204 252 241 253 260 263 39 119 19 77 90 343 32 327 239 241 156 275 208 188 179 179 132 230 186 245 177 163 181 156 154 102 360 307 3 328 183 333 286 125 145 190 171 114 48 332 55 260 301 230 231 132 93 39 328 276 277 160 233 262 264 203 261 270 247 270 166 168 195 186 185 188 185 179 179 184 191 193 195 197
318 315 339 115 32 51 131 139 268 245 247 244 245 34 206 184 140 46 95 156 187 214 274 239 95 280 239 255 193 182 137 253 128 214 267 183 47 67 162 143 86 14 350 345 304 87 301 229 173 181 142 131 178 222 183 164 248 277 338 85 250 202 213 198 259 253 269 262 272 251 250 268 267 251 174 182 203 190 195 193 190 188 188 194 194 197 199 195
269 255 191 85 47 77 168 219 266 248 241 243 149 187 144 38 117 128 143 356 338 323 251 58 314 126 311 233 19 161 179 244 132 232 245 155 230 149 181 307 138 93 96 330 292 57 221 293 151 164 208 138 213 221 236 177 157 222 220 225 200 277 280 229 235 287 280 280 272 278 245 284 248 294 43 190 202 205 198 197 200 196 193 197 200 200 200 199
291 232 161 80 49 205 163 239 245 225 244 272 180 53 115 146 132 119 162 260 98 272 35 304 165 277 202 337 313 289 126 278 237 193 258 121 239 142 183 221 101 128 76 38 341 334 300 13 293 141 157 177 226 205 237 228 202 177 213 208 175 233 26 295 277 254 272 287 281 289 281 285 31 69 322 307 242 211 204 203 202 200 197 200 203 202 204 198
258 274 98 74 17 207 231 243 234 222 245 72 351 70 169 136 146 131 116 250 168 13 333 304 251 239 28 202 198 205 249 228 243 241 239 156 235 170 145 41 214 168 136 170 205 165 281 217 268 199 197 216 221 51 19 355 338 293 255 231 231 203 208 222 241 178 252 250 274 283 285 308 115 115 333 292 337 270 214 208 204 202 201 201 199 202 200 202
260 242 103 55 2 222 252 224 124 349 256 201 117 145 142 6 168 136 149 160 266 142 168 267 322 293 204 249 356 118 271 251 228 264 203 270 153 294 94 17 303 352 253 175 19 79 328 318 283 265 245 259 49 61 37 359 328 305 286 268 251 254 262 255 271 239 206 253 289 277 292 299 102 91 96 340 311 292 268 218 206 202 204 200 195 201 201 202
223 342 92 15 359 239 245 235 120 206 219 62 118 105 116 170 174 132 212 161 208 170 185 233 58 238 166 299 233 251 250 268 270 256 20 240 160 59 75 19 271 222 253 117 152 133 197 250 247 250 277 240 191 60 34 358 298 243 225 248 246 241 248 261 273 314 291 241 242 252 245 267 114 108 113 140 280 261 256 241 219 201 200 194 198 206 202 194
333 308 148 119 163 271 253 239 208 190 119 127 201 116 13 56 188 171 217 152 282 166 254 146 168 277 13 220 251 264 96 257 170 262 215 228 165 78 68 26 225 216 258 81 300 131 242 147 282 291 246 207 206 198 204 180 233 248 253 221 241 279 272 281 292 275 264 264 267 272 270 289 117 128 167 196 206 221 214 212 227 213 188 198 206 207 202 193
293 234 257 17 81 238 263 349 295 179 163 170 172 171 169 165 31 358 309 153 187 265 229 192 2 151 208 214 252 231 159 291 288 119 332 234 91 119 87 348 241 283 61 17 13 130 258 279 253 263 257 240 235 232 239 201 214 217 251 243 220 242 233 226 239 222 251 262 263 247 262 309 121 189 211 202 220 222 216 206 200 218 208 202 201 198 190 185
242 250 142 177 136 171 107 356 313 274 173 168 201 159 214 169 137 119 288 129 345 123 336 78 150 237 197 208 214 221 203 170 258 276 226 211 167 140 88 118 233 102 76 67 174 219 285 278 259 258 270 274 1 351 42 319 330 256 229 234 231 228 248 250 272 273 264 272 245 245 260 285 267 246 226 218 220 236 218 199 203 203 206 210 205 195 190 189
324 282 26 184 157 224 192 186 199 233 214 188 221 160 198 216 131 158 263 227 162 213 154 253 203 209 179 232 235 233 215 234 217 257 249 269 195 108 113 102 138 123 134 136 166 244 249 269 234 249 255 261 292 308 344 309 291 282 273 250 240 238 234 239 246 255 294 287 262 263 266 256 265 284 272 258 242 237 241 224 216 212 208 208 204 196 187 191
258 75 304 31 300 123 200 163 256 182 69 216 199 191 207 190 192 196 159 275 131 196 237 171 226 246 241 228 210 237 198 228 218 245 195 238 246 172 179 176 199 161 194 156 176 254 285 280 271 265 263 264 252 259 267 272 263 275 274 271 259 245 241 245 248 256 262 256 269 300 307 263 274 285 286 279 272 261 248 240 232 223 217 208 203 197 195 201
308 15 31 354 257 46 10 34 325 225 171 222 153 213 206 218 210 199 219 155 202 199 228 254 218 202 214 215 234 240 229 255 228 233 255 228 235 236 228 176 197 165 203 179 179 262 277 257 51 259 283 264 246 242 241 255 260 255 255 253 254 255 254 250 255 254 256 261 263 271 281 281 281 277 280 283 283 274 270 266 239 223 219 216 208 209 209 205
29 329 52 248 290 67 97 202 193 206 209 165 236 190 235 215 232 173 199 219 199 197 174 240 238 169 196 212 222 251 231 258 314 270 180 250 217 227 258 261 199 178 217 216 194 159 255 271 106 260 267 260 240 239 244 251 262 265 262 259 256 253 253 252 253 255 260 262 261 266 270 274 271 268 268 283 260 237 240 232 229 228 227 220 217 213 211 212
339 318 319 300 234 130 181 204 209 228 221 179 238 167 229 219 245 219 212 207 233 211 186 234 145 166 193 228 230 251 265 263 266 266 270 235 257 205 238 211 242 226 205 213 204 179 216 267 157 266 277 276 209 241 250 260 260 265 264 255 249 246 247 241 243 242 245 249 254 256 256 258 267 249 245 235 207 217 224 226 225 221 220 216 216 215 211 208
278 216 274 296 273 110 246 148 237 233 236 213 259 198 230 228 245 214 236 217 237 256 240 235 178 261 173 212 239 257 293 271 258 273 294 272 264 306 265 323 245 253 228 231 217 235 225 258 259 263 264 273 261 279 280 292 280 265 251 244 247 247 248 250 249 243 241 250 252 247 251 260 284 6 263 231 220 220 226 225 218 219 217 215 213 213 212 203